Kosmos-1852

operational
NORAD ID: 18113 Int'l Des: 1987-051 Owner: UNKS Country: SU
LEOCIRCULAR

About Kosmos-1852

Description loading...

Live Position

Loading 3D Globe...

Upcoming Passes

Altitude History

Altitude vs Time

uPlot chart will show altitude changes over time

Two-Line Element Set

1 18113U 87051A 26062.61784645 -.00000002 00000-0 97341-4 0 9993
2 18113 74.0006 263.1055 0016430 103.2947 256.9934 12.44884650759297
Epoch: Mar 3, 2026 • Age: 30 hours

Current Status

Altitude 1485.2 km
Velocity 7.13 km/s
Sub-Earth Point 27.53°N, 12.62°E
Launch Date Jun 16, 1987
Age 38.7 years
Type other

Technical Details

Classification Payload
Mass 60.00 kg
Dry Mass 60.00 kg
Total Mass 60.00 kg
Length 0.80 m
Diameter 0.80 m
Span 0.80 m
Shape Poly
Manufacturer NPOPM
Bus Type Strela-1 11F625
Phase Status In Orbit
Owner/State UNKS/SU

Large Constellations

Loading constellations...